Vorticity
nan nan nan nan nan nan nan nan nan nan nan nan nan nan nan nan nan nan nan nan nan nan nan nan nan nan nan nan nan nan nan nan nan nan nan nan nan nan nan nan nan nan nan nan
nan 7 9 10 8 6 5 5 9 8 9 9 16 17 16 16 10 13 8 7 8 7 10 6 9 14 13 13 12 15 12 11 8 7 7 7 10 10 11 10 11 9 8 nan
nan 5 11 15 9 10 10 10 5 6 8 11 22 22 18 17 12 9 11 15 12 9 9 12 15 12 12 11 12 15 15 12 9 6 5 6 8 9 9 11 11 12 10 nan
nan 11 12 8 5 14 15 13 7 9 8 9 8 9 14 12 13 7 4 8 13 11 12 18 18 14 10 9 14 13 13 13 13 11 7 8 10 6 7 9 9 12 11 nan
nan 8 11 6 6 13 20 13 9 12 13 4 -0 9 7 10 12 10 10 4 6 20 18 17 13 10 9 9 10 8 8 7 11 13 16 15 8 5 10 15 13 9 10 nan
nan 8 12 12 11 15 21 17 14 15 13 13 15 6 4 15 7 6 11 9 11 18 15 6 6 6 6 7 7 7 6 8 8 8 9 12 12 14 10 8 9 9 10 nan
nan 14 6 7 23 22 13 11 13 17 11 20 22 4 3 2 11 14 8 12 22 11 0 7 6 5 7 9 9 9 6 7 8 8 7 7 8 13 14 10 9 7 5 nan
nan 7 2 9 14 11 18 14 -0 8 8 17 13 3 15 15 11 10 19 20 13 8 11 11 6 8 7 8 9 8 6 6 8 8 9 8 9 9 12 11 9 9 9 nan
nan 4 8 8 11 16 13 17 7 5 9 10 6 7 7 14 28 26 17 11 9 7 8 5 8 7 7 6 6 8 8 7 6 8 8 8 7 9 8 11 12 10 8 nan
nan 9 10 10 17 17 11 7 13 10 13 9 7 11 7 14 13 13 8 5 6 6 8 5 6 7 8 7 7 6 7 7 7 7 9 8 8 9 9 10 12 11 9 nan
nan 10 5 11 8 3 9 12 12 10 8 9 11 6 16 15 7 5 4 8 7 7 6 7 8 8 8 6 6 7 8 7 8 8 7 8 10 10 11 11 14 13 12 nan
nan 9 8 12 13 14 4 4 9 8 11 10 10 6 13 11 12 7 7 6 6 7 7 6 8 11 9 6 5 4 6 9 8 8 8 9 9 10 11 15 18 15 11 nan
nan 10 9 15 10 9 8 0 6 15 9 10 10 10 8 6 6 6 6 8 8 4 6 9 7 6 8 9 9 9 8 7 7 8 9 10 10 10 10 15 17 16 14 nan
nan 11 9 5 8 4 0 2 21 22 4 11 11 9 7 5 4 6 8 9 8 6 8 11 8 7 7 8 8 7 8 11 11 10 10 10 10 10 12 12 14 17 14 nan
nan 9 4 8 14 15 14 15 18 11 17 24 15 12 5 6 9 6 5 7 9 8 8 9 10 9 8 8 8 9 8 9 11 11 10 10 11 12 13 14 16 16 13 nan
nan 11 9 15 10 9 11 16 19 9 19 17 7 6 9 11 8 9 11 8 5 7 8 7 8 9 9 8 9 9 8 10 12 11 10 11 12 11 11 17 20 15 12 nan
nan 8 12 7 10 11 -0 6 12 10 15 18 11 10 6 4 8 9 9 8 8 8 7 7 9 8 8 9 10 9 10 11 12 11 10 11 11 11 12 17 20 16 13 nan
nan 10 11 8 12 9 3 8 6 0 6 18 18 13 10 7 5 7 9 8 8 7 9 9 9 7 8 10 10 10 10 10 10 11 11 10 11 12 13 14 22 20 14 nan
nan 7 11 11 15 8 -0 1 10 2 5 8 11 15 14 1 -3 1 7 9 9 10 11 10 10 10 9 8 9 11 11 10 9 10 11 11 11 13 13 11 25 23 12 nan
nan 15 11 8 11 9 -1 1 17 17 0 6 10 14 20 10 2 5 5 9 10 10 10 10 10 10 8 9 11 11 10 10 9 11 11 12 13 14 14 13 25 23 13 nan
nan 11 10 11 13 2 0 18 26 15 6 8 10 10 15 19 14 11 7 9 10 9 9 12 11 9 8 10 11 10 8 9 11 11 11 12 12 17 16 12 19 24 16 nan
nan 10 9 12 11 0 10 26 20 8 8 12 14 12 12 12 10 9 8 8 8 9 9 11 12 10 9 10 10 10 10 9 11 12 11 11 13 17 17 13 16 16 16 nan
nan 14 11 9 12 11 11 10 8 13 10 8 9 16 16 9 9 10 8 7 9 10 10 9 9 10 9 10 10 10 10 11 11 10 11 11 11 13 17 16 13 13 14 nan
nan 12 15 11 8 9 9 10 7 9 11 12 10 13 15 13 10 9 9 9 9 9 10 10 8 9 9 9 11 10 11 12 13 11 10 11 10 9 15 19 12 13 13 nan
nan 10 13 12 10 4 5 8 9 10 9 12 12 10 14 12 10 10 9 9 10 10 10 11 10 8 8 9 10 11 11 14 13 11 10 11 10 9 8 10 15 18 19 nan
nan nan nan nan nan nan nan nan nan nan nan nan nan nan nan nan nan nan nan nan nan nan nan nan nan nan nan nan nan nan nan nan nan nan nan nan nan nan nan nan nan nan nan nan
CAPE
0 0 0 0 0 0 0 0 0 0 0 0 0 0 0 0 0 0 0 0 0 0 0 0 0 0 0 0 0 342 691 1181 1617 1649 1480 921 1055 938 1021 1052 1152 906 986 1058
0 0 0 0 0 0 0 0 0 0 0 0 0 0 0 0 0 0 0 0 0 0 0 0 0 0 0 0 0 384 927 1256 1557 1681 1748 1329 883 752 949 923 924 984 733 884
0 0 0 0 0 0 0 0 0 14 0 0 13 51 0 0 0 0 0 0 0 0 0 0 0 0 0 0 7 997 1562 1622 1609 1540 907 359 265 149 347 294 615 802 733 721
0 0 0 0 0 0 0 0 1 13 0 0 88 15 0 0 0 0 0 0 0 0 0 0 0 0 0 0 0 0 91 157 101 450 817 642 1152 1278 709 649 509 344 523 481
0 0 0 0 0 5 0 0 0 1 0 0 32 117 0 0 0 0 0 0 0 0 0 0 0 0 0 0 0 0 0 0 0 0 0 657 830 612 52 72 242 369 318 483
0 0 0 0 0 0 18 0 13 7 1 1 0 68 0 0 0 0 0 0 0 0 0 0 0 0 0 0 0 0 0 0 0 0 0 0 0 64 100 102 99 18 166 543
0 0 0 0 0 24 36 7 0 0 6 48 33 80 5 0 0 0 0 0 0 0 0 0 0 0 0 0 0 0 0 0 0 0 0 0 0 0 2 74 220 235 58 12
0 0 0 0 0 31 79 0 0 0 25 5 22 3 0 0 0 0 0 0 0 0 0 0 0 0 0 0 0 0 0 0 0 0 0 0 0 0 0 1 69 97 105 98
22 3 0 0 0 54 3 0 0 50 28 0 0 0 0 8 6 0 0 0 0 0 0 0 0 0 0 0 0 0 0 0 0 0 0 0 0 0 0 0 5 46 34 22
7 5 0 0 14 78 86 1 56 15 6 15 91 4 34 185 41 1 0 0 0 0 0 0 0 0 0 0 0 0 0 0 0 0 0 0 0 0 0 0 0 22 21 6
4 16 0 0 6 0 7 0 2 21 2 13 35 187 154 202 11 4 5 1 0 0 0 0 0 0 0 0 0 0 0 0 0 0 0 0 0 0 0 0 0 4 14 91
0 57 5 0 0 0 0 16 3 11 5 0 0 5 11 6 6 6 4 2 1 0 0 0 0 0 0 0 0 0 0 0 0 0 0 0 0 0 0 0 0 2 0 0
0 1 0 0 0 0 0 0 0 0 0 0 2 7 21 6 3 2 4 2 0 0 0 0 0 0 0 0 0 0 0 0 0 0 0 0 0 0 1 0 2 1 11 11
0 0 18 9 3 3 3 0 0 1 0 0 5 6 14 16 5 5 3 1 1 0 0 0 0 0 0 0 0 0 0 1 2 1 2 0 0 2 1 1 4 11 28 21
0 0 0 0 0 6 17 8 0 11 31 0 32 40 13 10 12 7 4 4 0 0 2 2 2 2 1 1 2 3 2 1 3 5 4 2 2 1 2 3 4 5 15 18
0 0 0 0 2 2 8 16 1 1 1 48 2 19 18 15 4 4 5 1 5 3 5 4 2 2 2 2 5 6 5 1 2 1 3 2 4 3 2 1 6 11 12 29
0 0 0 0 0 8 0 5 10 4 5 10 7 21 7 3 3 3 2 2 3 3 1 0 0 3 3 2 5 5 3 2 2 2 2 4 5 5 4 0 8 24 33 0
0 0 0 0 0 6 18 0 16 3 12 3 10 8 8 2 1 2 1 2 3 3 3 4 4 3 1 4 2 1 1 4 2 2 2 3 5 6 6 2 3 42 7 1
0 0 0 0 0 24 0 0 12 20 19 25 16 10 12 1 0 2 2 1 2 3 3 3 3 2 4 4 1 0 1 3 3 3 4 4 4 6 7 2 3 39 7 0
0 0 0 0 0 0 2 1 0 0 8 16 4 9 17 12 2 5 2 2 1 1 2 2 1 2 0 1 0 0 0 0 0 4 5 4 3 4 6 2 1 5 0 0
0 0 0 0 0 2 8 3 0 0 13 19 21 15 1 2 2 2 1 2 1 1 1 0 0 1 1 0 1 3 1 0 2 3 2 2 2 3 3 1 2 1 0 0
1 0 0 0 0 0 6 0 2 12 3 4 7 8 1 1 1 1 1 2 1 1 2 2 0 0 0 0 3 1 1 4 2 2 0 0 0 1 2 0 0 0 0 0
3 4 0 4 3 8 4 18 16 16 10 0 0 0 2 0 0 1 2 2 2 3 2 0 2 2 1 2 4 0 3 3 0 0 0 0 0 0 0 0 0 0 0 0
2 0 0 4 5 3 2 1 7 15 4 2 7 0 0 0 0 0 0 1 2 3 0 0 0 1 1 2 1 1 2 2 0 1 0 0 0 0 0 0 0 0 0 0
1 0 0 0 6 2 2 4 2 1 0 0 0 0 0 0 0 0 0 0 1 1 0 0 0 0 0 1 0 2 0 1 2 1 2 1 0 0 0 0 0 0 0 1
0 1 0 0 0 6 0 6 2 0 1 0 0 0 0 0 0 0 0 0 1 0 0 0 0 0 0 0 0 0 0 0 3 4 2 1 1 0 0 0 0 5 4 6